Pompano Beach, FL

4:41 AM EDT on June 22, 2018 (GMT -0400)
Pompano Beach

Weather History for KPMP - August, 2017

Change the Weather History Date:

Sunday, August 13, 2017

  Actual Average Record
Temperature  
Mean Temperature 84 °F -  
Max Temperature 91 °F 92 °F 96 °F (1987)
Min Temperature 78 °F 74 °F 69 °F (1978)
Cooling Degree Days 20    
Growing Degree Days 34 (Base 50)    
Moisture  
Dew Point 76 °F    
Average Humidity 75    
Maximum Humidity 90    
Minimum Humidity 65    
Precipitation  
Precipitation 0.00 in - - ()
Sea Level Pressure  
Sea Level Pressure 30.00 in    
Wind  
Wind Speed 4 mph (SE)    
Max Wind Speed 14 mph    
Max Gust Speed -    
Visibility 10 miles    
Events      
Averages and records for this station are not official NWS values.
T = Trace of Precipitation, MM = Missing Value Source: NWS Daily Summary

Daily Weather History Graph

Daily Weather History Graph

Search for Another Location

Airport or City:

Astronomy

Aug. 13, 2017 Rise Set
Actual Time 6:52 AM EDT 7:58 PM EDT
Civil Twilight 6:27 AM EDT 8:22 PM EDT
Nautical Twilight 5:59 AM EDT 8:50 PM EDT
Astronomical Twilight 5:29 AM EDT 9:20 PM EDT
Moon No Moon Rise 12:16 PM EDT (8/13)
Length of Visible Light 13h 54m
Length of Day
13h 06m
Waning Gibbous, 65% of the Moon is Illuminated
Aug 13
Waning Gibbous
Aug 14
Last Quarter
Aug 21
New
Aug 29
First Quarter
Sep 6
Full

Hourly Weather History & Observations

Time (EDT) Temp. Heat Index Dew Point Humidity Pressure Visibility Wind Dir Wind Speed Gust Speed Precip Events Conditions
12:26 AM 82.0 °F 87.9 °F 73.9 °F 76% 30.01 in 10.0 mi North 5.8 mph - N/A   Overcast
12:53 AM 82.0 °F 88.6 °F 75.0 °F 79% 30.01 in 10.0 mi Calm Calm - N/A   Mostly Cloudy
1:03 AM 82.0 °F 88.6 °F 75.0 °F 79% 30.01 in 10.0 mi Calm Calm - N/A   Scattered Clouds
1:53 AM 82.0 °F 88.6 °F 75.0 °F 79% 29.99 in 10.0 mi Calm Calm - N/A   Clear
2:53 AM 81.0 °F 86.7 °F 75.0 °F 82% 29.98 in 10.0 mi Calm Calm - N/A   Clear
3:53 AM 80.1 °F 85.4 °F 75.9 °F 87% 29.97 in 10.0 mi NNW 3.5 mph - N/A   Clear
4:53 AM 80.1 °F 85.4 °F 75.9 °F 87% 29.96 in 10.0 mi Calm Calm - N/A   Clear
5:53 AM 79.0 °F - 75.9 °F 90% 29.96 in 10.0 mi Calm Calm - N/A   Clear
6:53 AM 78.1 °F - 75.0 °F 90% 29.98 in 9.0 mi NW 3.5 mph - N/A   Clear
7:53 AM 82.0 °F 90.2 °F 77.0 °F 85% 30.00 in 10.0 mi Calm Calm - N/A   Clear
8:53 AM 84.9 °F 94.1 °F 75.9 °F 74% 30.01 in 10.0 mi Calm Calm - N/A   Clear
9:53 AM 86.0 °F 96.0 °F 75.9 °F 72% 30.02 in 10.0 mi Calm Calm - N/A   Scattered Clouds
10:53 AM 87.1 °F 96.3 °F 75.0 °F 67% 30.03 in 10.0 mi Calm Calm - N/A   Scattered Clouds
11:53 AM 89.1 °F 101.4 °F 77.0 °F 67% 30.03 in 10.0 mi East 9.2 mph - N/A   Scattered Clouds
12:53 PM 90.0 °F 102.5 °F 77.0 °F 65% 30.01 in 10.0 mi East 10.4 mph - N/A   Scattered Clouds
1:53 PM 90.0 °F 102.5 °F 77.0 °F 65% 30.00 in 10.0 mi East 11.5 mph - N/A   Scattered Clouds
2:53 PM 90.0 °F 104.5 °F 78.1 °F 68% 29.99 in 10.0 mi ESE 13.8 mph - N/A   Scattered Clouds
3:53 PM 91.0 °F 106.2 °F 78.1 °F 66% 29.97 in 10.0 mi East 13.8 mph - N/A   Scattered Clouds
4:53 PM 89.1 °F 101.4 °F 77.0 °F 67% 29.97 in 10.0 mi SE 11.5 mph - N/A   Scattered Clouds
5:53 PM 89.1 °F 101.4 °F 77.0 °F 67% 29.97 in 10.0 mi SSE 10.4 mph - N/A   Clear
6:53 PM 87.1 °F 97.3 °F 75.9 °F 69% 29.96 in 10.0 mi SSE 10.4 mph - N/A   Clear
7:53 PM 86.0 °F 96.0 °F 75.9 °F 72% 29.99 in 10.0 mi SSE 12.7 mph - N/A   Clear
8:53 PM 86.0 °F 96.0 °F 75.9 °F 72% 30.02 in 10.0 mi South 10.4 mph - N/A   Clear
9:53 PM 86.0 °F 96.9 °F 77.0 °F 74% 30.03 in 10.0 mi South 6.9 mph - N/A   Clear
10:53 PM 86.0 °F 96.0 °F 75.9 °F 72% 30.04 in 10.0 mi SSW 4.6 mph - N/A   Clear
11:53 PM 84.0 °F 92.6 °F 75.9 °F 76% 30.04 in 10.0 mi NW 5.8 mph - N/A   Clear